Карточка аэропорта ULPB

Внимание!
Информация на этой странице в стадии наполнения.
Если вы не увидели какой-то информации, или заметили неточность - пожалуйста сообщите нам!
Спасибо!
Команда RU-STAFF
Название аэропортаПетрозаводск
Название аэропорта (англ.)Petrozavodsk
Превышение151 ft. (46 m.)
Координаты61°53.07', 34°9.258'
Высота перехода900
Эшелон перехода070
Коды ответчика3135-3137
Зона ОрВДСанкт-Петербург РПИ (ULLL)
Данные METARULPB 310730Z 22007MPS 9999 -SN BKN011 OVC036 01/M00 Q0975 R19/590532 NOSIG RMK QFE728/0970
Проноз погоды (TAF)
NOTAMshow/hide NOTAM
AWOS   TABLE

Информация о ВПП


Диспетчерские позиции

Позывной Наименование органа УВД Частота
ULPB_APPПетрозаводск-Вышка128.000



Спутниковое изображение